Orbital Elements
Epoch 2026 Apr. 30.0 TT = JDT 2461160.5
T 2026 Apr. 13.33813 TT MPCW
q 2.5460611 (2000.0) P Q
n 0.10816348 Peri. 26.85472 +0.90043489 -0.43497696
a 4.3626357 Node 358.91095 +0.35902226 +0.74766244
e 0.4163938 Incl. 10.52616 +0.24560136 +0.50179270
P 9.11
From 1186 observations 1998 Sept. 17-2017 Sept. 24, mean residual 0".7.
Nongravitational parameters A1 = +1.88, A2 = -0.2974.
|